Weather History for Los Angeles, CA

Change the Weather History Date:

Tuesday, January 1, 2013

  Actual Average Record
Temperature  
Mean Temperature 53 °F 56 °F  
Max Temperature 61 °F 64 °F 81 °F (2012)
Min Temperature 44 °F 48 °F 38 °F (1972)
Degree Days  
Heating Degree Days 12 9  
Month to date heating degree days 12 9  
Since 1 July heating degree days 371 451  
Cooling Degree Days 0 0  
Month to date cooling degree days 0 0  
Year to date cooling degree days 0 0  
Growing Degree Days 2 (Base 50)    
Moisture  
Dew Point 33 °F    
Average Humidity 49    
Maximum Humidity 71    
Minimum Humidity 26    
Precipitation  
Precipitation 0.00 in 0.09 in 0.87 in (1982)
Month to date precipitation 0.00 0.09  
Year to date precipitation 0.00 0.09  
Since 1 July precipitation 4.28 4.10  
Sea Level Pressure  
Sea Level Pressure 30.17 in    
Wind  
Wind Speed 4 mph (ENE)    
Max Wind Speed 13 mph    
Max Gust Speed 16 mph    
Visibility 10 miles    
Events      
T = Trace of Precipitation, MM = Missing Value Source: NWS Daily Summary

Daily Weather History Graph

Daily Weather History Graph

Search for Another Location

Airport:

Trip Planner

Search our weather history database for the weather conditions in past years. The results will help you decide how hot, cold, wet, or windy it might be!

Date:

Astronomy

Jan. 01, 2013 Rise Set
Actual Time 6:58 AM PST 4:55 PM PST
Civil Twilight 6:31 AM PST 5:23 PM PST
Nautical Twilight 6:00 AM PST 5:54 PM PST
Astronomical Twilight 5:29 AM PST 6:25 PM PST
Moon 9:18 PM PST (1/1) 9:25 AM PST (1/1)
Length of Visible Light 10h 52m
Length of Day
9h 56m
Waning Gibbous, 82% of the Moon is Illuminated
Jan 1
Waning Gibbous
Jan 4
Last Quarter
Jan 11
New
Jan 18
First Quarter
Jan 26
Full

Hourly Weather History & Observations

Time (PST) Temp. Windchill Dew Point Humidity Pressure Visibility Wind Dir Wind Speed Gust Speed Precip Events Conditions
12:53 AM 46.9 °F - 37.9 °F 71% 30.23 in 10.0 mi East 4.6 mph - N/A   Mostly Cloudy
1:53 AM 46.9 °F - 37.0 °F 68% 30.25 in 10.0 mi ENE 4.6 mph - N/A   Scattered Clouds
2:53 AM 46.9 °F - 37.0 °F 68% 30.24 in 10.0 mi ENE 5.8 mph - N/A   Mostly Cloudy
3:53 AM 46.0 °F 44.8 °F 36.0 °F 68% 30.22 in 10.0 mi ENE 3.5 mph - N/A   Mostly Cloudy
4:53 AM 46.0 °F 43.1 °F 35.1 °F 66% 30.21 in 10.0 mi ENE 5.8 mph - N/A   Mostly Cloudy
5:53 AM 46.0 °F - 34.0 °F 63% 30.21 in 10.0 mi Calm Calm - N/A   Mostly Cloudy
6:53 AM 46.9 °F - 35.1 °F 63% 30.22 in 10.0 mi NNE 3.5 mph - N/A   Mostly Cloudy
7:53 AM 48.0 °F - 34.0 °F 58% 30.22 in 10.0 mi Variable 6.9 mph - N/A   Mostly Cloudy
8:53 AM 51.1 °F - 35.1 °F 54% 30.23 in 10.0 mi Variable 4.6 mph - N/A   Mostly Cloudy
9:53 AM 53.1 °F - 33.1 °F 47% 30.22 in 10.0 mi NE 4.6 mph - N/A   Mostly Cloudy
10:53 AM 57.0 °F - 33.1 °F 40% 30.21 in 10.0 mi Variable 5.8 mph - N/A   Mostly Cloudy
11:53 AM 57.9 °F - 32.0 °F 37% 30.17 in 10.0 mi North 4.6 mph - N/A   Mostly Cloudy
12:53 PM 59.0 °F - 32.0 °F 36% 30.14 in 10.0 mi Calm Calm - N/A   Mostly Cloudy
1:53 PM 59.0 °F - 28.0 °F 31% 30.12 in 10.0 mi ESE 6.9 mph - N/A   Mostly Cloudy
2:53 PM 61.0 °F - 28.9 °F 30% 30.11 in 10.0 mi East 6.9 mph - N/A   Scattered Clouds
3:53 PM 59.0 °F - 28.9 °F 32% 30.11 in 10.0 mi Variable 4.6 mph - N/A   Scattered Clouds
4:53 PM 59.0 °F - 25.0 °F 27% 30.11 in 10.0 mi Calm Calm - N/A   Scattered Clouds
5:53 PM 54.0 °F - 41.0 °F 62% 30.12 in 10.0 mi West 6.9 mph - N/A   Scattered Clouds
6:53 PM 54.0 °F - 44.1 °F 69% 30.13 in 10.0 mi WSW 4.6 mph - N/A   Mostly Cloudy
7:53 PM 55.0 °F - 42.1 °F 62% 30.14 in 10.0 mi Calm Calm - N/A   Mostly Cloudy
8:53 PM 57.9 °F - 28.9 °F 33% 30.14 in 10.0 mi SE 4.6 mph - N/A   Mostly Cloudy
9:53 PM 57.0 °F - 26.1 °F 30% 30.15 in 10.0 mi East 3.5 mph - N/A   Scattered Clouds
10:53 PM 55.0 °F - 30.9 °F 40% 30.16 in 10.0 mi Calm Calm - N/A   Mostly Cloudy
11:53 PM 54.0 °F - 28.0 °F 37% 30.14 in 10.0 mi Calm Calm - N/A   Mostly Cloudy